Weather History for Hobbs, NM

Change the Weather History Date:

Saturday, March 16, 2013

  Actual Average Record
Temperature  
Mean Temperature 65 °F -  
Max Temperature 86 °F 66 °F 86 °F (2011)
Min Temperature 44 °F 39 °F 20 °F (1956)
Growing Degree Days 15 (Base 50)    
Moisture  
Dew Point 27 °F    
Average Humidity 32    
Maximum Humidity 57    
Minimum Humidity 5    
Precipitation  
Precipitation 0.00 in - - ()
Sea Level Pressure  
Sea Level Pressure 29.82 in    
Wind  
Wind Speed 8 mph (East)    
Max Wind Speed 23 mph    
Max Gust Speed 21 mph    
Visibility 10 miles    
Events      
Averages and records for this station are not official NWS values.
T = Trace of Precipitation, MM = Missing Value Source: NWS Daily Summary

Daily Weather History Graph

Daily Weather History Graph

Search for Another Location

Airport:

Trip Planner

Search our weather history database for the weather conditions in past years. The results will help you decide how hot, cold, wet, or windy it might be!

Date:

Astronomy

Mar. 16, 2013 Rise Set
Actual Time 7:01 AM MDT 7:01 PM MDT
Civil Twilight 6:36 AM MDT 7:26 PM MDT
Nautical Twilight 6:08 AM MDT 7:54 PM MDT
Astronomical Twilight 5:39 AM MDT 8:23 PM MDT
Moon 9:49 AM MDT (3/16) 11:55 PM MDT (3/16)
Length of Visible Light 12h 49m
Length of Day
12h 00m
Waxing Crescent, 23% of the Moon is Illuminated
Mar 16
Waxing Crescent
Mar 19
First Quarter
Mar 27
Full
Apr 2
Last Quarter
Apr 10
New

Hourly Weather History & Observations

Time (MDT) Temp. Windchill Dew Point Humidity Pressure Visibility Wind Dir Wind Speed Gust Speed Precip Events Conditions
12:15 AM 57.2 °F - 28.4 °F 33% 29.90 in 10.0 mi South 12.7 mph - N/A   Clear
12:35 AM 57.2 °F - 28.4 °F 33% 29.91 in 10.0 mi SSW 9.2 mph - N/A   Clear
12:55 AM 57.2 °F - 28.4 °F 33% 29.90 in 10.0 mi South 12.7 mph - N/A   Clear
1:15 AM 55.4 °F - 28.4 °F 36% 29.90 in 10.0 mi South 10.4 mph - N/A   Clear
1:35 AM 53.6 °F - 28.4 °F 38% 29.90 in 10.0 mi SSW 5.8 mph - N/A   Clear
1:55 AM 51.8 °F - 30.2 °F 44% 29.90 in 10.0 mi Calm Calm - N/A   Clear
2:15 AM 50.0 °F - 28.4 °F 43% 29.89 in 10.0 mi SSW 4.6 mph - N/A   Clear
2:35 AM 50.0 °F - 28.4 °F 43% 29.88 in 10.0 mi SSW 6.9 mph - N/A   Clear
2:55 AM 48.2 °F - 28.4 °F 46% 29.88 in 10.0 mi Calm Calm - N/A   Clear
3:15 AM 50.0 °F - 28.4 °F 43% 29.87 in 10.0 mi SSW 3.5 mph - N/A   Clear
3:35 AM 48.2 °F - 30.2 °F 50% 29.87 in 10.0 mi Calm Calm - N/A   Clear
3:55 AM 46.4 °F 44.3 °F 28.4 °F 50% 29.86 in 10.0 mi SSW 4.6 mph - N/A   Clear
4:35 AM 46.4 °F - 32.0 °F 57% 29.86 in 10.0 mi Calm Calm - N/A   Clear
4:55 AM 46.4 °F - 32.0 °F 57% 29.85 in 10.0 mi Calm Calm - N/A   Clear
5:50 AM 44.6 °F - 30.2 °F 57% 29.85 in 10.0 mi Calm Calm - N/A   Clear
7:50 AM 46.4 °F - 28.4 °F 50% 29.86 in 10.0 mi Calm Calm - N/A   Clear
8:50 AM 60.8 °F - 23.0 °F 23% 29.86 in 10.0 mi Calm Calm - N/A   Clear
9:50 AM 77.0 °F - 17.6 °F 11% 29.86 in 10.0 mi WNW 19.6 mph - N/A   Clear
10:50 AM 80.6 °F - 19.4 °F 10% 29.86 in 10.0 mi West 16.1 mph 20.7 mph N/A   Clear
11:50 AM 82.4 °F - 19.4 °F 10% 29.85 in 10.0 mi WNW 13.8 mph 17.3 mph N/A   Clear
1:50 PM 84.2 °F - 19.4 °F 9% 29.79 in 10.0 mi Variable 5.8 mph - N/A   Clear
2:50 PM 86.0 °F - 15.8 °F 7% 29.76 in 10.0 mi West 6.9 mph - N/A   Clear
4:50 PM 84.2 °F - 10.4 °F 6% 29.72 in 10.0 mi Variable 5.8 mph - N/A   Clear
5:50 PM 84.2 °F - 10.4 °F 6% 29.72 in 10.0 mi SSW 5.8 mph - N/A   Clear
6:15 PM 82.4 °F - 3.2 °F 5% 29.72 in 10.0 mi SW 10.4 mph 19.6 mph N/A   Clear
6:35 PM 78.8 °F - 3.2 °F 5% 29.73 in 10.0 mi Calm Calm - N/A   Clear
6:55 PM 75.2 °F - 28.4 °F 18% 29.73 in 10.0 mi ENE 23.0 mph - N/A   Clear
7:15 PM 73.4 °F - 28.4 °F 19% 29.74 in 10.0 mi NE 12.7 mph 19.6 mph N/A   Clear
7:35 PM 71.6 °F - 32.0 °F 23% 29.75 in 10.0 mi ENE 12.7 mph - N/A   Clear
7:55 PM 68.0 °F - 32.0 °F 26% 29.75 in 10.0 mi ENE 11.5 mph - N/A   Clear
8:15 PM 66.2 °F - 32.0 °F 28% 29.76 in 10.0 mi NE 11.5 mph - N/A   Clear
8:35 PM 66.2 °F - 32.0 °F 28% 29.77 in 10.0 mi NE 6.9 mph - N/A   Clear
8:55 PM 64.4 °F - 32.0 °F 30% 29.77 in 10.0 mi East 9.2 mph - N/A   Clear
9:15 PM 62.6 °F - 32.0 °F 32% 29.78 in 10.0 mi ENE 4.6 mph - N/A   Clear
9:35 PM 60.8 °F - 32.0 °F 34% 29.78 in 10.0 mi ENE 10.4 mph - N/A   Clear
9:55 PM 60.8 °F - 33.8 °F 36% 29.79 in 10.0 mi Calm Calm - N/A   Clear
10:15 PM 59.0 °F - 33.8 °F 39% 29.79 in 10.0 mi Calm Calm - N/A   Clear
10:35 PM 59.0 °F - 35.6 °F 42% 29.81 in 10.0 mi North 13.8 mph - N/A   Clear
10:55 PM 59.0 °F - 35.6 °F 42% 29.81 in 10.0 mi NNE 12.7 mph - N/A   Clear
11:15 PM 57.2 °F - 35.6 °F 44% 29.82 in 10.0 mi NNE 13.8 mph - N/A   Clear
11:35 PM 57.2 °F - 35.6 °F 44% 29.82 in 10.0 mi NNE 12.7 mph - N/A   Clear
11:55 PM 55.4 °F - 35.6 °F 47% 29.81 in 10.0 mi NNE 12.7 mph - N/A   Clear